This is the latest recevied weather packets stored in our database for station/object N5YHM-13. If no packets are shown the sender has not sent any weather packets the latest 10 day(s).
| Time | Temp. | Humidity | Pressure | Rain* | Wind** | Luminosity | Snow |
|---|---|---|---|---|---|---|---|
| 1778108533 | 27.78° C | 85% | 1012.2 hPa | 0 mm | - | 2 W/m² | - |
| 1778108230 | 27.78° C | 85% | 1012.2 hPa | 0 mm | - | 3 W/m² | - |
| 1778107927 | 27.78° C | 86% | 1012.5 hPa | 0 mm | - | 2 W/m² | - |
| 1778107623 | 27.78° C | 86% | 1012.2 hPa | 0 mm | - | 3 W/m² | - |
| 1778107320 | 27.78° C | 86% | 1012.2 hPa | 0 mm | - | 3 W/m² | - |
| 1778107016 | 27.78° C | 85% | 1012.2 hPa | 0 mm | - | 4 W/m² | - |
| 1778106712 | 27.78° C | 85% | 1012.5 hPa | 0 mm | - | 8 W/m² | - |
| 1778106409 | 28.33° C | 85% | 1012.3 hPa | 0 mm | - | 10 W/m² | - |
| 1778106105 | 28.33° C | 85% | 1012.1 hPa | 0 mm | - | 8 W/m² | - |
| 1778105803 | 27.78° C | 85% | 1012 hPa | 0 mm | - | 13 W/m² | - |
| 1778105501 | 27.78° C | 85% | 1012.5 hPa | 0 mm | - | 17 W/m² | - |
| 1778105198 | 27.78° C | 85% | 1012.7 hPa | 0 mm | - | 11 W/m² | - |
| 1778104892 | 27.78° C | 85% | 1013 hPa | 0 mm | - | 5 W/m² | - |
| 1778104590 | 27.78° C | 84% | 1013.1 hPa | 0 mm | - | 9 W/m² | - |
| 1778104285 | 28.33° C | 83% | 1013 hPa | 0 mm | - | 7 W/m² | - |
| 1778103982 | 28.33° C | 83% | 1013 hPa | 0 mm | - | 9 W/m² | - |
| 1778103680 | 28.33° C | 82% | 1012.8 hPa | 0 mm | - | 13 W/m² | - |
| 1778103378 | 28.33° C | 82% | 1013 hPa | 0 mm | - | 17 W/m² | - |
| 1778103074 | 28.33° C | 83% | 1013 hPa | 0 mm | - | 17 W/m² | - |
| 1778102772 | 28.33° C | 83% | 1013.2 hPa | 0 mm | - | 11 W/m² | - |
| 1778102466 | 28.33° C | 82% | 1013.3 hPa | 0 mm | - | 12 W/m² | - |
| 1778102162 | 28.33° C | 82% | 1013.6 hPa | 0 mm | - | 5 W/m² | - |
| 1778101860 | 28.33° C | 81% | 1013.6 hPa | 0 mm | - | 8 W/m² | - |
| 1778101556 | 28.89° C | 81% | 1013.3 hPa | 0 mm | - | 16 W/m² | - |
| 1778101253 | 28.89° C | 80% | 1013.3 hPa | 0 mm | - | 21 W/m² | - |
* Rain latest hour (hover to see other rain measurements)
** Current wind speed in m/s (hover to see current wind gust speed)